Weather History for New Haven, CT

Change the Weather History Date:

Monday, February 18, 2013

  Actual Average Record
Temperature  
Mean Temperature 26 °F -  
Max Temperature 35 °F 38 °F 30 °F (2014)
Min Temperature 17 °F 25 °F 19 °F (2014)
Degree Days  
Heating Degree Days 39    
Moisture  
Dew Point 6 °F    
Average Humidity 42    
Maximum Humidity 50    
Minimum Humidity 31    
Precipitation  
Precipitation 0.00 in - - ()
Sea Level Pressure  
Sea Level Pressure 30.11 in    
Wind  
Wind Speed 10 mph (WNW)    
Max Wind Speed 16 mph    
Max Gust Speed 26 mph    
Visibility 10 miles    
Events      
Averages and records for this station are not official NWS values.
T = Trace of Precipitation, MM = Missing Value Source: NWS Daily Summary

Daily Weather History Graph

Daily Weather History Graph

Search for Another Location

Airport:

Trip Planner

Search our weather history database for the weather conditions in past years. The results will help you decide how hot, cold, wet, or windy it might be!

Date:

Astronomy

Feb. 18, 2013 Rise Set
Actual Time 6:41 AM EST 5:29 PM EST
Civil Twilight 6:13 AM EST 5:57 PM EST
Nautical Twilight 5:41 AM EST 6:29 PM EST
Astronomical Twilight 5:09 AM EST 7:01 PM EST
Moon 11:11 AM EST (2/18) 1:20 AM EST (2/18)
Length of Visible Light 11h 43m
Length of Day
10h 47m
First Quarter, 58% of the Moon is Illuminated
Feb 18
First Quarter
Feb 25
Full
Mar 4
Last Quarter
Mar 11
New
Mar 19
First Quarter

Hourly Weather History & Observations

Time (EST) Temp. Windchill Dew Point Humidity Pressure Visibility Wind Dir Wind Speed Gust Speed Precip Events Conditions
12:53 AM 19.0 °F 6.1 °F 3.0 °F 50% 29.91 in 10.0 mi WNW 12.7 mph 25.3 mph N/A   Clear
1:53 AM 19.9 °F 6.7 °F 3.0 °F 48% 29.94 in 10.0 mi WNW 13.8 mph 26.5 mph N/A   Clear
2:53 AM 19.0 °F 7.5 °F 3.0 °F 50% 29.95 in 10.0 mi NW 10.4 mph 20.7 mph N/A   Clear
3:53 AM 19.0 °F 8.2 °F 3.0 °F 50% 29.97 in 10.0 mi WNW 9.2 mph 20.7 mph N/A   Clear
4:53 AM 19.0 °F 9.0 °F 3.0 °F 50% 30.01 in 10.0 mi WNW 8.1 mph 16.1 mph N/A   Clear
5:53 AM 18.0 °F 6.9 °F 1.9 °F 50% 30.04 in 10.0 mi NW 9.2 mph 21.9 mph N/A   Clear
6:53 AM 17.6 °F 6.4 °F 1.4 °F 49% 30.08 in 10.0 mi WNW 9.2 mph - N/A   Clear
7:53 AM 19.0 °F 8.2 °F 3.0 °F 50% 30.12 in 10.0 mi NW 9.2 mph 19.6 mph N/A   Clear
8:53 AM 21.0 °F 7.1 °F 1.9 °F 44% 30.12 in 10.0 mi NW 16.1 mph 25.3 mph N/A   Clear
9:53 AM 24.1 °F 13.7 °F 3.0 °F 40% 30.14 in 10.0 mi WNW 10.4 mph 21.9 mph N/A   Clear
10:53 AM 26.1 °F 16.8 °F 3.9 °F 39% 30.17 in 10.0 mi WNW 9.2 mph 21.9 mph N/A   Clear
11:53 AM 28.0 °F 18.1 °F 5.0 °F 38% 30.17 in 10.0 mi WNW 11.5 mph 23.0 mph N/A   Clear
12:53 PM 30.0 °F 23.2 °F 5.0 °F 35% 30.16 in 10.0 mi WNW 6.9 mph 17.3 mph N/A   Clear
1:53 PM 32.0 °F 24.8 °F 5.0 °F 32% 30.14 in 10.0 mi WNW 8.1 mph 18.4 mph N/A   Clear
2:53 PM 34.0 °F 26.6 °F 6.1 °F 31% 30.13 in 10.0 mi West 9.2 mph - N/A   Clear
3:53 PM 35.1 °F 27.9 °F 7.0 °F 31% 30.13 in 10.0 mi WNW 9.2 mph 17.3 mph N/A   Clear
4:53 PM 35.1 °F 27.9 °F 7.0 °F 31% 30.14 in 10.0 mi WNW 9.2 mph 17.3 mph N/A   Clear
5:53 PM 34.0 °F 28.8 °F 10.0 °F 37% 30.17 in 10.0 mi West 5.8 mph - N/A   Clear
6:53 PM 33.1 °F 27.7 °F 10.0 °F 38% 30.18 in 10.0 mi West 5.8 mph - N/A   Clear
7:53 PM 33.1 °F 30.0 °F 10.0 °F 38% 30.18 in 10.0 mi Variable 3.5 mph - N/A   Clear
8:53 PM 32.0 °F 24.8 °F 10.9 °F 42% 30.18 in 10.0 mi West 8.1 mph - N/A   Clear
9:53 PM 32.0 °F 27.5 °F 10.9 °F 42% 30.19 in 10.0 mi West 4.6 mph - N/A   Clear
10:53 PM 32.0 °F - 10.9 °F 42% 30.20 in 10.0 mi Calm Calm - N/A   Clear
11:53 PM 33.1 °F 30.0 °F 12.9 °F 43% 30.22 in 10.0 mi Variable 3.5 mph - N/A   Clear